| time (UTC) | temp F | wind direction | speed knots | gust knots | rain 1hr in | rain 24hr in | rain mn in | humidity % | barometer mb |
| 20260906113026 | 93 | 273 | 1.7 | 12.2 | 0.00 | 0.00 | 0.00 | 43 | 1021.9 |
| 20260906110026 | 94 | 223 | 1.7 | 3.5 | 0.00 | 0.00 | 0.00 | 35 | 1022.1 |
| 20260906103026 | 92 | 237 | 3.5 | 3.5 | 0.00 | 0.00 | 0.00 | 34 | 1022.2 |
| 20260906100026 | 91 | 214 | 0.0 | 3.5 | 0.00 | 0.00 | 0.00 | 34 | 1022.3 |
| 20260906090024 | 89 | 336 | 2.6 | 4.3 | 0.00 | 0.00 | 0.00 | 37 | 1022.4 |
| 20260906083025 | 89 | 5 | 1.7 | 6.1 | 0.00 | 0.00 | 0.00 | 35 | 1022.3 |
| 20260906080024 | 87 | 63 | 0.0 | 2.6 | 0.00 | 0.00 | 0.00 | 44 | 1022.1 |
| 20260906073024 | 85 | 5 | 1.7 | 1.7 | 0.00 | 0.00 | 0.00 | 42 | 1021.8 |
| 20260906070025 | 84 | 335 | 2.6 | 2.6 | 0.00 | 0.00 | 0.00 | 41 | 1021.6 |
| 20260906060022 | 80 | 348 | 1.7 | 2.6 | 0.00 | 0.00 | 0.00 | 39 | 1021.1 |
| 20260906053024 | 78 | 347 | 1.7 | 2.6 | 0.00 | 0.00 | 0.00 | 41 | 1021.0 |
| 20260906050022 | 76 | 355 | 1.7 | 2.6 | 0.00 | 0.00 | 0.00 | 48 | 1020.8 |
| 20260906043021 | 76 | 347 | 1.7 | 2.6 | 0.00 | 0.00 | 0.00 | 53 | 1020.8 |
| 20260906033021 | 77 | 355 | 1.7 | 2.6 | 0.00 | 0.00 | 0.00 | 55 | 1020.7 |
| 20260906023020 | 77 | 355 | 1.7 | 1.7 | 0.00 | 0.00 | 0.00 | 64 | 1021.0 |
| 20260906013019 | 77 | 348 | 1.7 | 2.6 | 0.00 | 0.00 | 0.00 | 66 | 1021.1 |
| 20260906003019 | 77 | 13 | 1.7 | 3.5 | 0.00 | 0.00 | 0.00 | 68 | 1021.5 |
| 20260906000049 | 78 | 12 | 1.7 | 4.3 | 0.00 | 0.00 | 0.00 | 67 | 1021.5 |
| 20260905233018 | 78 | 355 | 1.7 | 3.5 | 0.00 | 0.00 | 0.00 | 64 | 1021.8 |
| 20260905230048 | 78 | 346 | 1.7 | 3.5 | 0.00 | 0.00 | 0.00 | 64 | 1021.8 |
| 20260905223018 | 78 | 5 | 3.5 | 6.1 | 0.00 | 0.00 | 0.00 | 65 | 1021.8 |
| 20260905220047 | 78 | 355 | 1.7 | 4.3 | 0.00 | 0.00 | 0.00 | 66 | 1021.7 |
| 20260905210047 | 78 | 16 | 4.3 | 7.0 | 0.00 | 0.00 | 0.00 | 70 | 1021.8 |
| 20260905203048 | 79 | 310 | 1.7 | 7.0 | 0.00 | 0.00 | 0.00 | 67 | 1021.8 |
| 20260905200046 | 80 | 348 | 2.6 | 3.5 | 0.00 | 0.00 | 0.00 | 63 | 1021.8 |
| 20260905190046 | 80 | 346 | 2.6 | 4.3 | 0.00 | 0.00 | 0.00 | 62 | 1021.4 |
| 20260905183045 | 81 | 151 | 0.9 | 2.6 | 0.00 | 0.00 | 0.00 | 59 | 1021.0 |
| 20260905180044 | 81 | 305 | 4.3 | 6.1 | 0.00 | 0.00 | 0.00 | 59 | 1020.8 |
| 20260905170044 | 83 | 344 | 5.2 | 9.6 | 0.00 | 0.00 | 0.00 | 56 | 1020.8 |
| 20260905163044 | 85 | 265 | 6.1 | 7.8 | 0.00 | 0.00 | 0.00 | 48 | 1020.8 |
| 20260905160043 | 86 | 5 | 2.6 | 4.3 | 0.00 | 0.00 | 0.00 | 48 | 1020.6 |
| 20260905153043 | 87 | 274 | 7.0 | 10.4 | 0.00 | 0.00 | 0.00 | 53 | 1020.6 |
| 20260905143043 | 87 | 9 | 7.0 | 9.6 | 0.00 | 0.00 | 0.00 | 58 | 1020.9 |
| 20260905140042 | 88 | 298 | 6.1 | 8.7 | 0.00 | 0.00 | 0.00 | 56 | 1020.9 |
| 20260905133042 | 93 | 257 | 6.1 | 6.1 | 0.00 | 0.00 | 0.00 | 50 | 1021.5 |
| 20260905123041 | 92 | 163 | 3.5 | 6.1 | 0.00 | 0.00 | 0.00 | 38 | 1021.6 |
| 20260905120041 | 92 | 198 | 1.7 | 4.3 | 0.00 | 0.00 | 0.00 | 35 | 1021.6 |